Time,TemperatureF,DewpointF,PressureIn,WindDirection,WindDirectionDegrees,WindSpeedMPH,WindSpeedGustMPH,Humidity,HourlyPrecipIn,Conditions,Clouds,dailyrainin,SoftwareType,DateUTC
2013-08-18 00:00:00,63.0,57.1,29.64,West,280,0.0,0.0,81,0.00,,,0.00,Wunderground v.1.15,2013-08-18 05:00:00,
2013-08-18 00:06:00,62.9,56.6,29.64,West,280,0.0,0.0,80,0.00,,,0.00,Wunderground v.1.15,2013-08-18 05:06:00,
2013-08-18 00:12:00,62.8,56.9,29.64,West,280,0.0,0.0,81,0.00,,,0.00,Wunderground v.1.15,2013-08-18 05:12:00,
2013-08-18 00:17:00,62.7,56.8,29.64,West,280,0.0,0.0,81,0.00,,,0.00,Wunderground v.1.15,2013-08-18 05:17:00,
2013-08-18 00:23:00,62.5,56.9,29.64,West,280,0.0,0.0,82,0.00,,,0.00,Wunderground v.1.15,2013-08-18 05:23:00,
2013-08-18 00:29:00,62.4,56.8,29.64,West,280,0.0,0.0,82,0.00,,,0.00,Wunderground v.1.15,2013-08-18 05:29:00,
2013-08-18 00:34:00,62.3,56.7,29.64,West,280,0.0,0.0,82,0.00,,,0.00,Wunderground v.1.15,2013-08-18 05:34:00,
2013-08-18 00:40:00,62.2,56.6,29.64,West,280,0.0,0.0,82,0.00,,,0.00,Wunderground v.1.15,2013-08-18 05:40:00,
2013-08-18 00:45:00,62.1,56.9,29.64,West,280,0.0,0.0,83,0.00,,,0.00,Wunderground v.1.15,2013-08-18 05:45:00,
2013-08-18 00:51:00,62.0,56.8,29.64,West,280,0.0,0.0,83,0.00,,,0.00,Wunderground v.1.15,2013-08-18 05:51:00,
2013-08-18 00:58:00,61.8,56.6,29.64,West,280,0.0,0.0,83,0.00,,,0.00,Wunderground v.1.15,2013-08-18 05:58:00,
2013-08-18 01:04:00,61.7,56.8,29.64,West,280,0.0,0.0,84,0.00,,,0.00,Wunderground v.1.15,2013-08-18 06:04:00,
2013-08-18 01:10:00,61.7,56.8,29.64,West,280,0.0,0.0,84,0.00,,,0.00,Wunderground v.1.15,2013-08-18 06:10:00,
2013-08-18 01:15:00,61.5,56.3,29.64,West,280,0.0,0.0,83,0.00,,,0.00,Wunderground v.1.15,2013-08-18 06:15:00,
2013-08-18 01:21:00,61.4,56.5,29.64,West,280,0.0,0.0,84,0.00,,,0.00,Wunderground v.1.15,2013-08-18 06:21:00,
2013-08-18 01:26:00,61.2,56.7,29.64,West,280,0.0,0.0,85,0.00,,,0.00,Wunderground v.1.15,2013-08-18 06:26:00,
2013-08-18 01:31:00,61.5,56.6,29.64,West,280,0.0,0.0,84,0.00,,,0.00,Wunderground v.1.15,2013-08-18 06:31:00,
2013-08-18 01:36:00,61.8,57.2,29.64,West,271,0.0,0.0,85,0.00,,,0.00,Wunderground v.1.15,2013-08-18 06:36:00,
2013-08-18 01:43:00,61.0,56.8,29.64,West,280,0.0,0.0,86,0.00,,,0.00,Wunderground v.1.15,2013-08-18 06:43:00,
2013-08-18 01:49:00,60.8,56.3,29.65,West,280,0.0,0.0,85,0.00,,,0.00,Wunderground v.1.15,2013-08-18 06:49:00,
2013-08-18 01:55:00,60.6,56.7,29.65,West,280,0.0,0.0,87,0.00,,,0.00,Wunderground v.1.15,2013-08-18 06:55:00,
2013-08-18 02:00:00,60.5,56.6,29.65,West,280,0.0,0.0,87,0.00,,,0.00,Wunderground v.1.15,2013-08-18 07:00:00,
2013-08-18 02:06:00,60.3,56.4,29.65,West,280,0.0,0.0,87,0.00,,,0.00,Wunderground v.1.15,2013-08-18 07:06:00,
2013-08-18 02:11:00,60.4,56.2,29.65,West,280,0.0,0.0,86,0.00,,,0.00,Wunderground v.1.15,2013-08-18 07:11:00,
2013-08-18 02:16:00,60.2,56.6,29.65,West,280,0.0,0.0,88,0.00,,,0.00,Wunderground v.1.15,2013-08-18 07:16:00,
2013-08-18 02:21:00,60.0,56.4,29.65,West,280,0.0,0.0,88,0.00,,,0.00,Wunderground v.1.15,2013-08-18 07:21:00,
2013-08-18 02:27:00,59.9,56.3,29.65,West,280,0.0,0.0,88,0.00,,,0.00,Wunderground v.1.15,2013-08-18 07:27:00,
2013-08-18 02:32:00,59.9,56.3,29.64,West,280,0.0,0.0,88,0.00,,,0.00,Wunderground v.1.15,2013-08-18 07:32:00,
2013-08-18 02:37:00,59.8,56.2,29.65,West,280,0.0,0.0,88,0.00,,,0.00,Wunderground v.1.15,2013-08-18 07:37:00,
2013-08-18 02:43:00,59.7,56.5,29.65,West,280,0.0,0.0,89,0.00,,,0.00,Wunderground v.1.15,2013-08-18 07:43:00,
2013-08-18 02:48:00,59.6,56.4,29.65,West,280,0.0,0.0,89,0.00,,,0.00,Wunderground v.1.15,2013-08-18 07:48:00,
2013-08-18 02:53:00,59.6,56.4,29.64,West,280,0.0,0.0,89,0.00,,,0.00,Wunderground v.1.15,2013-08-18 07:53:00,
2013-08-18 02:59:00,59.8,-99.9,29.64,West,280,0.0,0.0,255,0.00,,,0.00,Wunderground v.1.15,2013-08-18 07:59:00,
2013-08-18 03:04:00,59.6,56.4,29.64,West,280,0.0,0.0,89,0.00,,,0.00,Wunderground v.1.15,2013-08-18 08:04:00,
2013-08-18 03:10:00,59.5,56.3,29.64,West,280,0.0,0.0,89,0.00,,,0.00,Wunderground v.1.15,2013-08-18 08:10:00,
2013-08-18 03:16:00,59.4,56.2,29.64,West,280,0.0,0.0,89,0.00,,,0.00,Wunderground v.1.15,2013-08-18 08:16:00,
2013-08-18 03:21:00,59.3,56.1,29.64,West,280,0.0,0.0,89,0.00,,,0.00,Wunderground v.1.15,2013-08-18 08:21:00,
2013-08-18 03:27:00,59.3,56.4,29.64,West,280,0.0,0.0,90,0.00,,,0.00,Wunderground v.1.15,2013-08-18 08:27:00,
2013-08-18 03:32:00,59.1,56.2,29.64,West,280,0.0,0.0,90,0.00,,,0.00,Wunderground v.1.15,2013-08-18 08:32:00,
2013-08-18 03:37:00,58.9,56.0,29.64,West,280,0.0,0.0,90,0.00,,,0.00,Wunderground v.1.15,2013-08-18 08:37:00,
2013-08-18 03:42:00,58.9,56.0,29.64,West,280,0.0,0.0,90,0.00,,,0.00,Wunderground v.1.15,2013-08-18 08:42:00,
2013-08-18 03:48:00,58.9,56.0,29.64,West,280,0.0,0.0,90,0.00,,,0.00,Wunderground v.1.15,2013-08-18 08:48:00,
2013-08-18 03:53:00,58.9,56.0,29.64,West,280,0.0,0.0,90,0.00,,,0.00,Wunderground v.1.15,2013-08-18 08:53:00,
2013-08-18 03:58:00,58.9,56.0,29.65,West,280,0.0,0.0,90,0.00,,,0.00,Wunderground v.1.15,2013-08-18 08:58:00,
2013-08-18 04:04:00,58.8,55.9,29.65,West,280,0.0,0.0,90,0.00,,,0.00,Wunderground v.1.15,2013-08-18 09:04:00,
2013-08-18 04:09:00,58.7,55.8,29.65,West,280,0.0,0.0,90,0.00,,,0.00,Wunderground v.1.15,2013-08-18 09:09:00,
2013-08-18 04:15:00,58.7,56.1,29.64,West,280,0.0,0.0,91,0.00,,,0.00,Wunderground v.1.15,2013-08-18 09:15:00,
2013-08-18 04:20:00,58.6,56.0,29.64,West,280,0.0,0.0,91,0.00,,,0.00,Wunderground v.1.15,2013-08-18 09:20:00,
2013-08-18 04:25:00,58.7,56.1,29.64,West,271,0.0,0.0,91,0.00,,,0.00,Wunderground v.1.15,2013-08-18 09:25:00,
2013-08-18 04:31:00,58.6,56.0,29.64,West,280,0.0,0.0,91,0.00,,,0.00,Wunderground v.1.15,2013-08-18 09:31:00,
2013-08-18 04:36:00,58.5,55.9,29.64,West,280,0.0,0.0,91,0.00,,,0.00,Wunderground v.1.15,2013-08-18 09:36:00,
2013-08-18 04:41:00,58.7,55.5,29.64,West,280,0.0,0.0,89,0.00,,,0.00,Wunderground v.1.15,2013-08-18 09:41:00,
2013-08-18 04:47:00,58.3,55.7,29.65,West,271,0.0,0.0,91,0.00,,,0.00,Wunderground v.1.15,2013-08-18 09:47:00,
2013-08-18 04:52:00,58.3,55.7,29.65,West,280,0.0,0.0,91,0.00,,,0.00,Wunderground v.1.15,2013-08-18 09:52:00,
2013-08-18 04:58:00,58.3,55.4,29.65,West,280,0.0,0.0,90,0.00,,,0.00,Wunderground v.1.15,2013-08-18 09:58:00,
2013-08-18 05:04:00,58.2,55.6,29.65,West,280,0.0,0.0,91,0.00,,,0.00,Wunderground v.1.15,2013-08-18 10:04:00,
2013-08-18 05:09:00,58.1,55.5,29.65,West,280,0.0,0.0,91,0.00,,,0.00,Wunderground v.1.15,2013-08-18 10:09:00,
2013-08-18 05:14:00,58.0,55.4,29.65,West,280,0.0,0.0,91,0.00,,,0.00,Wunderground v.1.15,2013-08-18 10:14:00,
2013-08-18 05:20:00,58.0,55.4,29.65,West,280,0.0,0.0,91,0.00,,,0.00,Wunderground v.1.15,2013-08-18 10:20:00,
2013-08-18 05:26:00,57.9,55.3,29.66,West,280,0.0,0.0,91,0.00,,,0.00,Wunderground v.1.15,2013-08-18 10:26:00,
2013-08-18 05:32:00,57.8,55.2,29.66,West,270,0.0,0.0,91,0.00,,,0.00,Wunderground v.1.15,2013-08-18 10:32:00,
2013-08-18 05:38:00,57.8,55.5,29.66,West,280,0.0,0.0,92,0.00,,,0.00,Wunderground v.1.15,2013-08-18 10:38:00,
2013-08-18 05:43:00,57.8,55.5,29.66,West,280,0.0,0.0,92,0.00,,,0.00,Wunderground v.1.15,2013-08-18 10:43:00,
2013-08-18 05:48:00,57.7,55.4,29.66,West,280,0.0,0.0,92,0.00,,,0.00,Wunderground v.1.15,2013-08-18 10:48:00,
2013-08-18 05:53:00,57.7,55.4,29.67,West,280,0.0,0.0,92,0.00,,,0.00,Wunderground v.1.15,2013-08-18 10:53:00,
2013-08-18 05:59:00,57.7,55.4,29.67,West,280,0.0,0.0,92,0.00,,,0.00,Wunderground v.1.15,2013-08-18 10:59:00,
2013-08-18 06:04:00,57.6,55.3,29.67,West,280,0.0,0.0,92,0.00,,,0.00,Wunderground v.1.15,2013-08-18 11:04:00,
2013-08-18 06:10:00,57.7,55.4,29.67,West,280,0.0,0.0,92,0.00,,,0.00,Wunderground v.1.15,2013-08-18 11:10:00,
2013-08-18 06:15:00,57.6,55.3,29.67,West,280,0.0,0.0,92,0.00,,,0.00,Wunderground v.1.15,2013-08-18 11:15:00,
2013-08-18 06:20:00,57.5,55.2,29.67,West,280,0.0,0.0,92,0.00,,,0.00,Wunderground v.1.15,2013-08-18 11:20:00,
2013-08-18 06:26:00,57.5,55.2,29.67,West,280,0.0,0.0,92,0.00,,,0.00,Wunderground v.1.15,2013-08-18 11:26:00,
2013-08-18 06:31:00,57.5,55.2,29.68,West,280,0.0,0.0,92,0.00,,,0.00,Wunderground v.1.15,2013-08-18 11:31:00,
2013-08-18 06:36:00,57.5,55.2,29.68,West,280,0.0,0.0,92,0.00,,,0.00,Wunderground v.1.15,2013-08-18 11:36:00,
2013-08-18 06:42:00,57.5,55.2,29.67,West,280,0.0,0.0,92,0.00,,,0.00,Wunderground v.1.15,2013-08-18 11:42:00,
2013-08-18 06:47:00,57.5,55.2,29.67,West,280,0.0,0.0,92,0.00,,,0.00,Wunderground v.1.15,2013-08-18 11:47:00,
2013-08-18 06:52:00,57.5,55.5,29.68,West,280,0.0,0.0,93,0.00,,,0.00,Wunderground v.1.15,2013-08-18 11:52:00,
2013-08-18 06:58:00,57.6,55.6,29.68,West,280,0.0,0.0,93,0.00,,,0.00,Wunderground v.1.15,2013-08-18 11:58:00,
2013-08-18 07:03:00,57.7,55.7,29.68,West,280,0.0,0.0,93,0.00,,,0.00,Wunderground v.1.15,2013-08-18 12:03:00,
2013-08-18 07:08:00,57.7,55.7,29.68,West,280,0.0,0.0,93,0.00,,,0.00,Wunderground v.1.15,2013-08-18 12:08:00,
2013-08-18 07:13:00,57.8,55.8,29.68,West,280,0.0,0.0,93,0.00,,,0.00,Wunderground v.1.15,2013-08-18 12:13:00,
2013-08-18 07:19:00,57.9,55.9,29.68,West,280,0.0,0.0,93,0.00,,,0.00,Wunderground v.1.15,2013-08-18 12:19:00,
2013-08-18 07:24:00,58.0,56.0,29.68,West,280,0.0,0.0,93,0.00,,,0.00,Wunderground v.1.15,2013-08-18 12:24:00,
2013-08-18 07:30:00,58.2,56.2,29.68,West,280,0.0,0.0,93,0.00,,,0.00,Wunderground v.1.15,2013-08-18 12:30:00,
2013-08-18 07:39:00,58.8,57.1,29.68,West,280,0.0,0.0,94,0.00,,,0.00,Wunderground v.1.15,2013-08-18 12:39:00,
2013-08-18 07:44:00,59.1,57.4,29.68,West,280,0.0,0.0,94,0.00,,,0.00,Wunderground v.1.15,2013-08-18 12:44:00,
2013-08-18 07:50:00,59.6,57.9,29.68,West,280,0.0,0.0,94,0.00,,,0.00,Wunderground v.1.15,2013-08-18 12:50:00,
2013-08-18 07:55:00,60.0,58.0,29.68,West,280,0.0,0.0,93,0.00,,,0.00,Wunderground v.1.15,2013-08-18 12:55:00,
2013-08-18 08:00:00,60.3,58.3,29.69,West,280,0.0,0.0,93,0.00,,,0.00,Wunderground v.1.15,2013-08-18 13:00:00,
2013-08-18 08:06:00,60.7,58.4,29.69,West,280,0.0,0.0,92,0.00,,,0.00,Wunderground v.1.15,2013-08-18 13:06:00,
2013-08-18 08:20:00,61.6,58.9,29.69,West,280,0.0,0.0,91,0.00,,,0.00,Wunderground v.1.15,2013-08-18 13:20:00,
2013-08-18 08:25:00,62.0,59.0,29.69,West,280,0.0,0.0,90,0.00,,,0.00,Wunderground v.1.15,2013-08-18 13:25:00,
2013-08-18 08:31:00,62.5,59.2,29.69,West,280,0.0,0.0,89,0.00,,,0.00,Wunderground v.1.15,2013-08-18 13:31:00,
2013-08-18 08:36:00,63.0,59.1,29.69,West,280,0.0,0.0,87,0.00,,,0.00,Wunderground v.1.15,2013-08-18 13:36:00,
2013-08-18 08:42:00,63.6,59.3,29.69,West,280,0.0,0.0,86,0.00,,,0.00,Wunderground v.1.15,2013-08-18 13:42:00,
2013-08-18 08:48:00,64.4,59.1,29.69,West,280,0.0,0.0,83,0.00,,,0.00,Wunderground v.1.15,2013-08-18 13:48:00,
2013-08-18 08:53:00,65.0,59.7,29.69,West,280,0.0,0.0,83,0.00,,,0.00,Wunderground v.1.15,2013-08-18 13:53:00,
2013-08-18 08:59:00,65.8,59.1,29.69,West,280,0.0,0.0,79,0.00,,,0.00,Wunderground v.1.15,2013-08-18 13:59:00,
2013-08-18 09:05:00,66.5,59.8,29.69,West,280,0.0,0.0,79,0.00,,,0.00,Wunderground v.1.15,2013-08-18 14:05:00,
2013-08-18 09:10:00,67.3,60.2,29.69,West,280,0.0,0.0,78,0.00,,,0.00,Wunderground v.1.15,2013-08-18 14:10:00,
2013-08-18 09:16:00,68.0,60.9,29.69,West,280,0.0,0.0,78,0.00,,,0.00,Wunderground v.1.15,2013-08-18 14:16:00,
2013-08-18 09:21:00,68.7,62.3,29.69,West,280,0.0,0.0,80,0.00,,,0.00,Wunderground v.1.15,2013-08-18 14:21:00,
2013-08-18 09:27:00,69.1,61.2,29.69,West,280,0.0,2.0,76,0.00,,,0.00,Wunderground v.1.15,2013-08-18 14:27:00,
2013-08-18 09:32:00,69.5,62.0,29.69,West,280,0.0,0.0,77,0.00,,,0.00,Wunderground v.1.15,2013-08-18 14:32:00,
2013-08-18 09:37:00,70.1,61.8,29.69,West,280,0.0,2.0,75,0.00,,,0.00,Wunderground v.1.15,2013-08-18 14:37:00,
2013-08-18 09:43:00,70.7,62.0,29.70,West,280,0.0,0.0,74,0.00,,,0.00,Wunderground v.1.15,2013-08-18 14:43:00,
2013-08-18 09:48:00,71.3,62.2,29.70,West,280,0.0,0.0,73,0.00,,,0.00,Wunderground v.1.15,2013-08-18 14:48:00,
2013-08-18 09:53:00,71.9,62.0,29.69,West,281,0.0,2.0,71,0.00,,,0.00,Wunderground v.1.15,2013-08-18 14:53:00,
2013-08-18 09:59:00,72.8,62.0,29.69,West,280,0.0,2.0,69,0.00,,,0.00,Wunderground v.1.15,2013-08-18 14:59:00,
2013-08-18 10:04:00,73.6,62.4,29.69,West,280,0.0,0.0,68,0.00,,,0.00,Wunderground v.1.15,2013-08-18 15:04:00,
2013-08-18 10:09:00,73.9,62.7,29.69,West,280,0.0,2.0,68,0.00,,,0.00,Wunderground v.1.15,2013-08-18 15:09:00,
2013-08-18 10:15:00,74.4,62.3,29.69,West,280,0.0,0.0,66,0.00,,,0.00,Wunderground v.1.15,2013-08-18 15:15:00,
2013-08-18 10:31:00,74.7,62.6,29.69,West,280,0.0,0.0,66,0.00,,,0.00,Wunderground v.1.15,2013-08-18 15:31:00,
2013-08-18 10:36:00,74.9,63.2,29.69,West,280,0.0,0.0,67,0.00,,,0.00,Wunderground v.1.15,2013-08-18 15:36:00,
2013-08-18 10:41:00,75.6,63.4,29.69,West,280,0.0,0.0,66,0.00,,,0.00,Wunderground v.1.15,2013-08-18 15:41:00,
2013-08-18 10:47:00,76.0,61.6,29.69,West,280,0.0,0.0,61,0.00,,,0.00,Wunderground v.1.15,2013-08-18 15:47:00,
2013-08-18 10:52:00,75.8,62.8,29.69,West,280,0.0,0.0,64,0.00,,,0.00,Wunderground v.1.15,2013-08-18 15:52:00,
2013-08-18 10:58:00,76.8,62.3,29.68,West,280,0.0,0.0,61,0.00,,,0.00,Wunderground v.1.15,2013-08-18 15:58:00,
2013-08-18 11:04:00,76.7,63.2,29.68,West,280,0.0,0.0,63,0.00,,,0.00,Wunderground v.1.15,2013-08-18 16:04:00,
2013-08-18 11:09:00,77.1,62.6,29.68,West,280,1.0,1.0,61,0.00,,,0.00,Wunderground v.1.15,2013-08-18 16:09:00,
2013-08-18 11:15:00,77.2,62.7,29.68,West,280,1.0,2.0,61,0.00,,,0.00,Wunderground v.1.15,2013-08-18 16:15:00,
2013-08-18 11:20:00,77.3,61.4,29.68,West,280,0.0,0.0,58,0.00,,,0.00,Wunderground v.1.15,2013-08-18 16:20:00,
2013-08-18 11:25:00,77.4,63.4,29.69,West,280,0.0,0.0,62,0.00,,,0.00,Wunderground v.1.15,2013-08-18 16:25:00,
2013-08-18 11:31:00,77.7,62.7,29.68,West,280,0.0,0.0,60,0.00,,,0.00,Wunderground v.1.15,2013-08-18 16:31:00,
2013-08-18 11:36:00,78.2,62.2,29.68,West,280,0.0,0.0,58,0.00,,,0.00,Wunderground v.1.15,2013-08-18 16:36:00,
2013-08-18 11:43:00,78.2,62.7,29.68,West,280,0.0,0.0,59,0.00,,,0.00,Wunderground v.1.15,2013-08-18 16:43:00,
2013-08-18 11:49:00,78.5,64.4,29.68,West,280,0.0,0.0,62,0.00,,,0.00,Wunderground v.1.15,2013-08-18 16:49:00,
2013-08-18 11:54:00,78.9,-99.9,29.68,West,280,0.0,1.0,255,0.00,,,0.00,Wunderground v.1.15,2013-08-18 16:54:00,
2013-08-18 12:00:00,78.4,62.9,29.68,West,280,0.0,0.0,59,0.00,,,0.00,Wunderground v.1.15,2013-08-18 17:00:00,
2013-08-18 12:06:00,78.9,62.9,29.68,West,280,0.0,0.0,58,0.00,,,0.00,Wunderground v.1.15,2013-08-18 17:06:00,
2013-08-18 12:12:00,79.3,62.2,29.68,West,280,0.0,1.0,56,0.00,,,0.00,Wunderground v.1.15,2013-08-18 17:12:00,
2013-08-18 12:17:00,79.3,62.7,29.68,West,280,0.0,4.0,57,0.00,,,0.00,Wunderground v.1.15,2013-08-18 17:17:00,
2013-08-18 12:22:00,79.3,64.2,29.67,West,280,0.0,1.0,60,0.00,,,0.00,Wunderground v.1.15,2013-08-18 17:22:00,
2013-08-18 12:28:00,79.3,61.7,29.67,West,280,0.0,1.0,55,0.00,,,0.00,Wunderground v.1.15,2013-08-18 17:28:00,
2013-08-18 12:33:00,79.3,62.7,29.67,West,280,0.0,1.0,57,0.00,,,0.00,Wunderground v.1.15,2013-08-18 17:33:00,
2013-08-18 12:39:00,79.9,63.3,29.67,West,280,0.0,1.0,57,0.00,,,0.00,Wunderground v.1.15,2013-08-18 17:39:00,
2013-08-18 12:49:00,79.7,61.6,29.66,West,280,1.0,1.0,54,0.00,,,0.00,Wunderground v.1.15,2013-08-18 17:49:00,
2013-08-18 12:59:00,79.9,62.3,29.66,West,280,0.0,1.0,55,0.00,,,0.00,Wunderground v.1.15,2013-08-18 17:59:00,
2013-08-18 13:05:00,80.5,63.4,29.66,West,280,0.0,5.0,56,0.00,,,0.00,Wunderground v.1.15,2013-08-18 18:05:00,
2013-08-18 13:10:00,80.4,63.8,29.66,West,280,0.0,0.0,57,0.00,,,0.00,Wunderground v.1.15,2013-08-18 18:10:00,
2013-08-18 13:16:00,80.0,62.9,29.66,West,280,0.0,1.0,56,0.00,,,0.00,Wunderground v.1.15,2013-08-18 18:16:00,
2013-08-18 13:22:00,79.4,63.8,29.65,West,280,0.0,0.0,59,0.00,,,0.00,Wunderground v.1.15,2013-08-18 18:22:00,
2013-08-18 13:28:00,79.4,62.3,29.65,West,280,0.0,0.0,56,0.00,,,0.00,Wunderground v.1.15,2013-08-18 18:28:00,
2013-08-18 13:33:00,79.8,62.7,29.65,West,280,0.0,4.0,56,0.00,,,0.00,Wunderground v.1.15,2013-08-18 18:33:00,
2013-08-18 13:39:00,80.1,62.5,29.65,West,280,1.0,8.0,55,0.00,,,0.00,Wunderground v.1.15,2013-08-18 18:39:00,
2013-08-18 13:44:00,79.8,63.2,29.65,West,280,1.0,1.0,57,0.00,,,0.00,Wunderground v.1.15,2013-08-18 18:44:00,
2013-08-18 13:49:00,80.0,63.4,29.65,West,280,1.0,5.0,57,0.00,,,0.00,Wunderground v.1.15,2013-08-18 18:49:00,
2013-08-18 13:55:00,80.1,62.5,29.65,West,280,1.0,1.0,55,0.00,,,0.00,Wunderground v.1.15,2013-08-18 18:55:00,
2013-08-18 14:00:00,80.2,63.1,29.64,West,280,0.0,0.0,56,0.00,,,0.00,Wunderground v.1.15,2013-08-18 19:00:00,
2013-08-18 14:06:00,80.2,62.0,29.64,West,280,0.0,0.0,54,0.00,,,0.00,Wunderground v.1.15,2013-08-18 19:06:00,
2013-08-18 14:12:00,80.4,63.8,29.64,West,280,0.0,0.0,57,0.00,,,0.00,Wunderground v.1.15,2013-08-18 19:12:00,
2013-08-18 14:17:00,80.7,63.5,29.64,West,280,0.0,0.0,56,0.00,,,0.00,Wunderground v.1.15,2013-08-18 19:17:00,
2013-08-18 14:22:00,80.7,63.0,29.63,West,280,1.0,2.0,55,0.00,,,0.00,Wunderground v.1.15,2013-08-18 19:22:00,
2013-08-18 14:28:00,81.2,64.0,29.64,West,280,1.0,5.0,56,0.00,,,0.00,Wunderground v.1.15,2013-08-18 19:28:00,
2013-08-18 14:33:00,81.0,62.8,29.63,West,280,2.0,7.0,54,0.00,,,0.00,Wunderground v.1.15,2013-08-18 19:33:00,
2013-08-18 14:38:00,81.1,62.9,29.63,West,280,2.0,7.0,54,0.00,,,0.00,Wunderground v.1.15,2013-08-18 19:38:00,
2013-08-18 14:44:00,81.7,61.8,29.63,West,280,0.0,1.0,51,0.00,,,0.00,Wunderground v.1.15,2013-08-18 19:44:00,
2013-08-18 14:49:00,82.0,62.1,29.63,West,280,0.0,2.0,51,0.00,,,0.00,Wunderground v.1.15,2013-08-18 19:49:00,
2013-08-18 14:54:00,82.0,62.1,29.63,West,280,0.0,0.0,51,0.00,,,0.00,Wunderground v.1.15,2013-08-18 19:54:00,
2013-08-18 15:00:00,82.2,62.8,29.63,West,280,0.0,0.0,52,0.00,,,0.00,Wunderground v.1.15,2013-08-18 20:00:00,
2013-08-18 15:06:00,82.6,62.1,29.62,West,280,0.0,1.0,50,0.00,,,0.00,Wunderground v.1.15,2013-08-18 20:06:00,
2013-08-18 15:12:00,82.5,62.5,29.62,West,280,1.0,1.0,51,0.00,,,0.00,Wunderground v.1.15,2013-08-18 20:12:00,
2013-08-18 15:17:00,82.2,63.4,29.62,West,280,1.0,1.0,53,0.00,,,0.00,Wunderground v.1.15,2013-08-18 20:17:00,
2013-08-18 15:23:00,82.1,62.2,29.62,West,280,1.0,1.0,51,0.00,,,0.00,Wunderground v.1.15,2013-08-18 20:23:00,
2013-08-18 15:32:00,82.2,62.3,29.61,West,280,1.0,1.0,51,0.00,,,0.00,Wunderground v.1.15,2013-08-18 20:32:00,
2013-08-18 15:38:00,82.1,63.3,29.62,West,280,1.0,1.0,53,0.00,,,0.00,Wunderground v.1.15,2013-08-18 20:38:00,
2013-08-18 15:43:00,81.8,63.0,29.62,West,280,0.0,1.0,53,0.00,,,0.00,Wunderground v.1.15,2013-08-18 20:43:00,
2013-08-18 15:48:00,81.6,62.3,29.61,West,280,0.0,1.0,52,0.00,,,0.00,Wunderground v.1.15,2013-08-18 20:48:00,
2013-08-18 15:54:00,81.1,62.9,29.61,West,280,0.0,4.0,54,0.00,,,0.00,Wunderground v.1.15,2013-08-18 20:54:00,
2013-08-18 15:59:00,81.0,63.8,29.61,West,280,1.0,4.0,56,0.00,,,0.00,Wunderground v.1.15,2013-08-18 20:59:00,
2013-08-18 16:05:00,81.2,63.0,29.61,West,280,0.0,4.0,54,0.00,,,0.00,Wunderground v.1.15,2013-08-18 21:05:00,
2013-08-18 16:10:00,81.7,62.9,29.61,West,280,0.0,4.0,53,0.00,,,0.00,Wunderground v.1.15,2013-08-18 21:10:00,
2013-08-18 16:15:00,81.6,64.4,29.61,West,280,0.0,6.0,56,0.00,,,0.00,Wunderground v.1.15,2013-08-18 21:15:00,
2013-08-18 16:20:00,82.7,64.9,29.61,West,280,1.0,1.0,55,0.00,,,0.00,Wunderground v.1.15,2013-08-18 21:20:00,
2013-08-18 16:25:00,82.0,64.2,29.60,West,280,1.0,2.0,55,0.00,,,0.00,Wunderground v.1.15,2013-08-18 21:25:00,
2013-08-18 16:31:00,82.0,63.2,29.60,West,280,1.0,1.0,53,0.00,,,0.00,Wunderground v.1.15,2013-08-18 21:31:00,
2013-08-18 16:36:00,82.0,63.7,29.60,West,280,0.0,1.0,54,0.00,,,0.00,Wunderground v.1.15,2013-08-18 21:36:00,
2013-08-18 16:42:00,82.1,62.7,29.60,West,280,1.0,1.0,52,0.00,,,0.00,Wunderground v.1.15,2013-08-18 21:42:00,
2013-08-18 16:47:00,81.8,63.0,29.60,West,280,1.0,8.0,53,0.00,,,0.00,Wunderground v.1.15,2013-08-18 21:47:00,
2013-08-18 16:52:00,81.9,63.6,29.60,West,280,1.0,4.0,54,0.00,,,0.00,Wunderground v.1.15,2013-08-18 21:52:00,
2013-08-18 17:01:00,81.9,63.1,29.60,West,280,1.0,1.0,53,0.00,,,0.00,Wunderground v.1.15,2013-08-18 22:01:00,
2013-08-18 17:07:00,81.6,63.9,29.60,West,280,1.0,6.0,55,0.00,,,0.00,Wunderground v.1.15,2013-08-18 22:07:00,
2013-08-18 17:12:00,82.0,63.7,29.60,West,280,1.0,6.0,54,0.00,,,0.00,Wunderground v.1.15,2013-08-18 22:12:00,
2013-08-18 17:17:00,81.9,64.7,29.60,West,280,0.0,6.0,56,0.00,,,0.00,Wunderground v.1.15,2013-08-18 22:17:00,
2013-08-18 17:22:00,82.0,63.7,29.60,West,280,1.0,2.0,54,0.00,,,0.00,Wunderground v.1.15,2013-08-18 22:22:00,
2013-08-18 17:28:00,81.9,63.6,29.60,West,280,1.0,2.0,54,0.00,,,0.00,Wunderground v.1.15,2013-08-18 22:28:00,
2013-08-18 17:33:00,81.6,64.4,29.60,West,280,0.0,1.0,56,0.00,,,0.00,Wunderground v.1.15,2013-08-18 22:33:00,
2013-08-18 17:38:00,81.5,64.8,29.60,West,280,0.0,1.0,57,0.00,,,0.00,Wunderground v.1.15,2013-08-18 22:38:00,
2013-08-18 17:44:00,81.1,63.9,29.60,West,280,0.0,0.0,56,0.00,,,0.00,Wunderground v.1.15,2013-08-18 22:44:00,
2013-08-18 17:49:00,81.2,65.0,29.60,West,280,0.0,0.0,58,0.00,,,0.00,Wunderground v.1.15,2013-08-18 22:49:00,
2013-08-18 17:54:00,81.1,64.4,29.60,West,280,0.0,0.0,57,0.00,,,0.00,Wunderground v.1.15,2013-08-18 22:54:00,
2013-08-18 18:00:00,81.0,64.3,29.60,West,280,0.0,0.0,57,0.00,,,0.00,Wunderground v.1.15,2013-08-18 23:00:00,
2013-08-18 18:06:00,80.4,64.8,29.60,West,280,0.0,0.0,59,0.00,,,0.00,Wunderground v.1.15,2013-08-18 23:06:00,
2013-08-18 18:11:00,79.8,65.6,29.59,West,280,0.0,0.0,62,0.00,,,0.00,Wunderground v.1.15,2013-08-18 23:11:00,
2013-08-18 18:17:00,79.2,64.1,29.59,West,280,0.0,0.0,60,0.00,,,0.00,Wunderground v.1.15,2013-08-18 23:17:00,
2013-08-18 18:22:00,-999.9,-99.9,29.59,West,280,0.0,0.0,255,0.00,,,0.00,Wunderground v.1.15,2013-08-18 23:22:00,
2013-08-18 18:28:00,78.9,65.2,29.59,West,280,0.0,0.0,63,0.00,,,0.00,Wunderground v.1.15,2013-08-18 23:28:00,
2013-08-18 18:33:00,79.1,65.0,29.59,West,280,0.0,0.0,62,0.00,,,0.00,Wunderground v.1.15,2013-08-18 23:33:00,
2013-08-18 18:38:00,79.5,64.4,29.59,West,280,0.0,0.0,60,0.00,,,0.00,Wunderground v.1.15,2013-08-18 23:38:00,
2013-08-18 18:44:00,-999.9,-99.9,29.59,West,280,0.0,0.0,61,0.00,,,0.00,Wunderground v.1.15,2013-08-18 23:44:00,
2013-08-18 18:49:00,79.0,63.9,29.59,West,280,0.0,0.0,60,0.00,,,0.00,Wunderground v.1.15,2013-08-18 23:49:00,
2013-08-18 18:54:00,78.6,64.0,29.59,West,280,0.0,0.0,61,0.00,,,0.00,Wunderground v.1.15,2013-08-18 23:54:00,
2013-08-18 19:00:00,78.4,64.3,29.59,West,280,0.0,0.0,62,0.00,,,0.00,Wunderground v.1.15,2013-08-19 00:00:00,
2013-08-18 19:06:00,78.4,63.4,29.59,West,280,0.0,4.0,60,0.00,,,0.00,Wunderground v.1.15,2013-08-19 00:06:00,
2013-08-18 19:11:00,78.1,63.6,29.59,West,280,0.0,0.0,61,0.00,,,0.00,Wunderground v.1.15,2013-08-19 00:11:00,
2013-08-18 19:21:00,77.6,63.1,29.59,West,280,0.0,0.0,61,0.00,,,0.00,Wunderground v.1.15,2013-08-19 00:21:00,
2013-08-18 19:27:00,77.5,63.0,29.59,West,280,0.0,0.0,61,0.00,,,0.00,Wunderground v.1.15,2013-08-19 00:27:00,
2013-08-18 19:36:00,76.9,62.9,29.60,West,280,0.0,0.0,62,0.00,,,0.00,Wunderground v.1.15,2013-08-19 00:36:00,
2013-08-18 19:42:00,76.6,63.1,29.60,West,280,0.0,0.0,63,0.00,,,0.00,Wunderground v.1.15,2013-08-19 00:42:00,
2013-08-18 19:48:00,76.4,63.3,29.60,West,280,0.0,0.0,64,0.00,,,0.00,Wunderground v.1.15,2013-08-19 00:48:00,
2013-08-18 19:53:00,76.1,63.9,29.59,West,280,0.0,0.0,66,0.00,,,0.00,Wunderground v.1.15,2013-08-19 00:53:00,
2013-08-18 19:59:00,75.8,64.1,29.59,West,280,0.0,0.0,67,0.00,,,0.00,Wunderground v.1.15,2013-08-19 00:59:00,
2013-08-18 20:05:00,-90.0,-95.1,29.59,West,280,0.0,0.0,67,0.00,,,0.00,Wunderground v.1.15,2013-08-19 01:05:00,
2013-08-18 20:10:00,-90.0,-95.3,29.59,West,280,0.0,0.0,66,0.00,,,0.00,Wunderground v.1.15,2013-08-19 01:10:00,
2013-08-18 20:16:00,74.9,-99.9,29.60,West,280,0.0,0.0,255,0.00,,,0.00,Wunderground v.1.15,2013-08-19 01:16:00,
2013-08-18 20:21:00,74.5,62.8,29.60,West,280,0.0,0.0,67,0.00,,,0.00,Wunderground v.1.15,2013-08-19 01:21:00,
2013-08-18 20:27:00,74.0,63.6,29.60,West,280,0.0,0.0,70,0.00,,,0.00,Wunderground v.1.15,2013-08-19 01:27:00,
2013-08-18 20:33:00,73.7,63.7,29.60,West,280,0.0,0.0,71,0.00,,,0.00,Wunderground v.1.15,2013-08-19 01:33:00,
2013-08-18 20:38:00,73.4,63.8,29.60,West,280,0.0,0.0,72,0.00,,,0.00,Wunderground v.1.15,2013-08-19 01:38:00,
2013-08-18 20:44:00,72.9,63.7,29.60,West,280,0.0,0.0,73,0.00,,,0.00,Wunderground v.1.15,2013-08-19 01:44:00,
2013-08-18 20:49:00,72.5,63.7,29.60,West,280,0.0,0.0,74,0.00,,,0.00,Wunderground v.1.15,2013-08-19 01:49:00,
2013-08-18 20:54:00,72.2,63.1,29.60,West,280,0.0,0.0,73,0.00,,,0.00,Wunderground v.1.15,2013-08-19 01:54:00,
2013-08-18 21:00:00,72.1,63.0,29.61,West,280,0.0,0.0,73,0.00,,,0.00,Wunderground v.1.15,2013-08-19 02:00:00,
2013-08-18 21:05:00,71.7,63.0,29.61,West,280,0.0,0.0,74,0.00,,,0.00,Wunderground v.1.15,2013-08-19 02:05:00,
2013-08-18 21:11:00,71.4,62.7,29.61,West,280,0.0,0.0,74,0.00,,,0.00,Wunderground v.1.15,2013-08-19 02:11:00,
2013-08-18 21:16:00,71.5,62.8,29.61,West,280,0.0,0.0,74,0.00,,,0.00,Wunderground v.1.15,2013-08-19 02:16:00,
2013-08-18 21:21:00,71.3,62.6,29.61,West,280,0.0,0.0,74,0.00,,,0.00,Wunderground v.1.15,2013-08-19 02:21:00,
2013-08-18 21:27:00,71.2,62.9,29.61,West,280,0.0,0.0,75,0.00,,,0.00,Wunderground v.1.15,2013-08-19 02:27:00,
2013-08-18 21:32:00,71.1,62.4,29.61,West,280,0.0,0.0,74,0.00,,,0.00,Wunderground v.1.15,2013-08-19 02:32:00,
2013-08-18 21:38:00,70.9,62.6,29.61,West,280,0.0,0.0,75,0.00,,,0.00,Wunderground v.1.15,2013-08-19 02:38:00,
2013-08-18 21:43:00,70.9,62.6,29.62,West,280,0.0,0.0,75,0.00,,,0.00,Wunderground v.1.15,2013-08-19 02:43:00,
2013-08-18 21:48:00,70.8,62.5,29.61,West,280,0.0,2.0,75,0.00,,,0.00,Wunderground v.1.15,2013-08-19 02:48:00,
2013-08-18 21:54:00,70.9,62.6,29.62,West,280,0.0,0.0,75,0.00,,,0.00,Wunderground v.1.15,2013-08-19 02:54:00,
2013-08-18 21:59:00,70.9,62.6,29.62,West,280,0.0,0.0,75,0.00,,,0.00,Wunderground v.1.15,2013-08-19 02:59:00,
2013-08-18 22:05:00,70.8,62.5,29.62,West,280,0.0,0.0,75,0.00,,,0.00,Wunderground v.1.15,2013-08-19 03:05:00,
2013-08-18 22:10:00,70.8,62.1,29.62,West,280,0.0,0.0,74,0.00,,,0.00,Wunderground v.1.15,2013-08-19 03:10:00,
2013-08-18 22:15:00,70.7,62.4,29.62,West,280,0.0,0.0,75,0.00,,,0.00,Wunderground v.1.15,2013-08-19 03:15:00,
2013-08-18 22:21:00,70.7,62.4,29.62,West,280,0.0,0.0,75,0.00,,,0.00,Wunderground v.1.15,2013-08-19 03:21:00,
2013-08-18 22:26:00,70.8,-99.9,29.62,West,280,0.0,0.0,255,0.00,,,0.00,Wunderground v.1.15,2013-08-19 03:26:00,
2013-08-18 22:31:00,70.8,62.5,29.62,West,280,0.0,0.0,75,0.00,,,0.00,Wunderground v.1.15,2013-08-19 03:31:00,
2013-08-18 22:37:00,-90.0,-93.7,29.62,West,280,0.0,0.0,75,0.00,,,0.00,Wunderground v.1.15,2013-08-19 03:37:00,
2013-08-18 22:42:00,70.4,62.1,29.62,West,280,0.0,0.0,75,0.00,,,0.00,Wunderground v.1.15,2013-08-19 03:42:00,
2013-08-18 22:48:00,70.3,62.0,29.62,West,280,0.0,1.0,75,0.00,,,0.00,Wunderground v.1.15,2013-08-19 03:48:00,
2013-08-18 22:53:00,70.3,62.4,29.62,West,280,0.0,0.0,76,0.00,,,0.00,Wunderground v.1.15,2013-08-19 03:53:00,
2013-08-18 22:58:00,70.3,62.0,29.61,West,280,0.0,0.0,75,0.00,,,0.00,Wunderground v.1.15,2013-08-19 03:58:00,
2013-08-18 23:01:00,70.3,62.4,29.62,West,280,0.0,0.0,76,0.00,,,0.00,Wunderground v.1.15,2013-08-19 04:01:00,
2013-08-18 23:02:00,70.3,62.4,29.61,West,280,0.0,0.0,76,0.00,,,0.00,Wunderground v.1.15,2013-08-19 04:02:00,
2013-08-18 23:04:00,70.3,62.4,29.62,West,280,0.0,0.0,76,0.00,,,0.00,Wunderground v.1.15,2013-08-19 04:04:00,
2013-08-18 23:05:00,70.4,62.1,29.61,West,280,0.0,0.0,75,0.00,,,0.00,Wunderground v.1.15,2013-08-19 04:05:00,
2013-08-18 23:10:00,70.4,62.1,29.61,West,280,0.0,0.0,75,0.00,,,0.00,Wunderground v.1.15,2013-08-19 04:10:00,
2013-08-18 23:15:00,70.4,62.1,29.62,West,280,0.0,1.0,75,0.00,,,0.00,Wunderground v.1.15,2013-08-19 04:15:00,
2013-08-18 23:26:00,70.2,62.3,29.61,West,280,0.0,0.0,76,0.00,,,0.00,Wunderground v.1.15,2013-08-19 04:26:00,
2013-08-18 23:36:00,70.0,62.5,29.61,West,280,0.0,0.0,77,0.00,,,0.00,Wunderground v.1.15,2013-08-19 04:36:00,
2013-08-18 23:42:00,70.0,62.5,29.62,West,280,0.0,0.0,77,0.00,,,0.00,Wunderground v.1.15,2013-08-19 04:42:00,
2013-08-18 23:49:00,69.9,62.4,29.61,West,280,0.0,0.0,77,0.00,,,0.00,Wunderground v.1.15,2013-08-19 04:49:00,
2013-08-18 23:55:00,69.8,62.3,29.61,West,280,0.0,0.0,77,0.00,,,0.00,Wunderground v.1.15,2013-08-19 04:55:00,